This is the latest recevied weather packets stored in our database for station/object KI4NG. If no packets are shown the sender has not sent any weather packets the latest 10 day(s).
| Time | Temp. | Humidity | Pressure | Rain* | Wind** | Luminosity | Snow |
|---|---|---|---|---|---|---|---|
| 1777401541 | 22.22° C | 81% | 1018.1 hPa | 0 mm | - | 765 W/m² | - |
| 1777401236 | 21.67° C | 82% | 1018.2 hPa | 0 mm | - | 570 W/m² | - |
| 1777400932 | 21.67° C | 82% | 1018.2 hPa | 0 mm | - | 639 W/m² | - |
| 1777400628 | 21.11° C | 82% | 1018.1 hPa | 0 mm | - | 599 W/m² | - |
| 1777400326 | 21.11° C | 84% | 1018.5 hPa | 0 mm | - | 424 W/m² | - |
| 1777400021 | 20.56° C | 83% | 1018.2 hPa | 0 mm | - | 357 W/m² | - |
| 1777399719 | 20.56° C | 83% | 1018.3 hPa | 0 mm | - | 415 W/m² | - |
| 1777399416 | 20.56° C | 83% | 1018.3 hPa | 0 mm | - | 431 W/m² | - |
| 1777399113 | 20.56° C | 83% | 1018.3 hPa | 0 mm | - | 578 W/m² | - |
| 1777398811 | 20.56° C | 83% | 1018.3 hPa | 0 mm | - | 525 W/m² | - |
| 1777398508 | 20.56° C | 84% | 1018.3 hPa | 0 mm | - | 403 W/m² | - |
| 1777398204 | 20° C | 84% | 1018.5 hPa | 0 mm | - | 592 W/m² | - |
| 1777397901 | 20.56° C | 85% | 1018.3 hPa | 0 mm | - | 747 W/m² | - |
| 1777397596 | 20° C | 84% | 1018.6 hPa | 0 mm | - | 698 W/m² | - |
| 1777397293 | 20° C | 85% | 1018.7 hPa | 0 mm | - | 562 W/m² | - |
| 1777396990 | 20° C | 85% | 1018.7 hPa | 0 mm | - | 472 W/m² | - |
| 1777396687 | 20° C | 84% | 1018.8 hPa | 0 mm | - | 451 W/m² | - |
| 1777396383 | 20° C | 84% | 1019 hPa | 0 mm | - | 482 W/m² | - |
| 1777396080 | 19.44° C | 85% | 1019 hPa | 0 mm | - | 531 W/m² | - |
| 1777395775 | 18.89° C | 86% | 1018.8 hPa | 0 mm | - | 440 W/m² | - |
| 1777395470 | 18.89° C | 86% | 1019 hPa | 0 mm | - | 465 W/m² | - |
| 1777395168 | 18.89° C | 86% | 1018.9 hPa | 0 mm | - | 1039 W/m² | - |
| 1777394865 | 18.89° C | 88% | 1019 hPa | 0 mm | - | 666 W/m² | - |
| 1777394561 | 18.33° C | 87% | 1019.1 hPa | 0 mm | - | 446 W/m² | - |
| 1777394258 | 17.78° C | 87% | 1019 hPa | 0 mm | - | 703 W/m² | - |
* Rain latest hour (hover to see other rain measurements)
** Current wind speed in m/s (hover to see current wind gust speed)